DAL1207 KDTW-KDFW

Flight info

Callsign DAL1207
Flight time N/A
Altitude 34000
Route SNDRS3 BGHRT STL RZC FSM RRNET SEEVR4
Aircraft A21N/M-SDE2E3FGHIRWXY/LB1

Departure

Time 2026-05-04 22:39
Airport Detroit Metropolitan Wayne County Airport (KDTW)

Arrival

Time N/A
Airport Dallas Fort Worth International Airport (KDFW)
Time Latitude Longitude Altitude Speed Heading
2026-05-04 22:23 42.21444 -83.35444 651 ft 0 kts 119°
2026-05-04 22:28 42.21446 -83.35448 651 ft 3 kts 119°
2026-05-04 22:28 42.21453 -83.35472 652 ft 4 kts 85°
2026-05-04 22:29 42.21447 -83.35506 654 ft 3 kts 79°
2026-05-04 22:29 42.21443 -83.35539 652 ft 4 kts 71°
2026-05-04 22:29 42.21431 -83.35556 654 ft 4 kts 28°
2026-05-04 22:29 42.21418 -83.35566 652 ft 0 kts 28°
2026-05-04 22:31 42.21428 -83.35558 656 ft 5 kts 30°
2026-05-04 22:32 42.21479 -83.35520 654 ft 13 kts 27°
2026-05-04 22:32 42.21601 -83.35511 651 ft 23 kts 356°
2026-05-04 22:32 42.21765 -83.35517 650 ft 19 kts 357°
2026-05-04 22:32 42.21823 -83.35423 651 ft 15 kts 86°
2026-05-04 22:33 42.21824 -83.35280 651 ft 16 kts 88°
2026-05-04 22:33 42.21827 -83.35131 651 ft 16 kts 89°
2026-05-04 22:33 42.21830 -83.34962 652 ft 20 kts 89°
2026-05-04 22:33 42.21834 -83.34762 652 ft 23 kts 89°
2026-05-04 22:34 42.21839 -83.34540 655 ft 21 kts 64°
2026-05-04 22:34 42.21967 -83.34420 651 ft 24 kts 28°
2026-05-04 22:34 42.22126 -83.34301 651 ft 28 kts 28°
2026-05-04 22:34 42.22306 -83.34169 653 ft 31 kts 28°
2026-05-04 22:35 42.22507 -83.34020 652 ft 35 kts 28°
2026-05-04 22:35 42.22693 -83.33882 653 ft 24 kts 28°
2026-05-04 22:35 42.22803 -83.33805 651 ft 15 kts 28°
2026-05-04 22:35 42.22841 -83.33777 651 ft 2 kts 33°
2026-05-04 22:36 42.22858 -83.33750 650 ft 6 kts 69°
2026-05-04 22:36 42.22846 -83.33674 649 ft 11 kts 119°
2026-05-04 22:36 42.22781 -83.33648 650 ft 5 kts 210°
2026-05-04 22:36 42.22781 -83.33649 650 ft 0 kts 209°
2026-05-04 22:38 42.22700 -83.33710 652 ft 35 kts 209°
2026-05-04 22:38 42.22222 -83.34058 652 ft 121 kts 208°
2026-05-04 22:38 42.21296 -83.34752 914 ft 174 kts 208°
2026-05-04 22:39 42.20162 -83.35627 1806 ft 199 kts 211°
2026-05-04 22:39 42.18941 -83.36488 2678 ft 204 kts 207°
2026-05-04 22:39 42.17526 -83.37111 3113 ft 223 kts 199°
2026-05-04 22:39 42.15966 -83.37655 3556 ft 239 kts 200°
2026-05-04 22:40 42.14333 -83.38242 4187 ft 246 kts 200°
2026-05-04 22:40 42.12671 -83.38851 4933 ft 249 kts 200°
2026-05-04 22:40 42.10989 -83.39471 5647 ft 252 kts 200°
2026-05-04 22:40 42.09285 -83.40099 6344 ft 256 kts 200°
2026-05-04 22:41 42.07581 -83.40813 6988 ft 256 kts 208°
2026-05-04 22:41 42.06062 -83.42040 7628 ft 255 kts 219°
2026-05-04 22:41 42.04627 -83.43466 8277 ft 258 kts 221°
2026-05-04 22:41 42.03175 -83.44920 8953 ft 261 kts 221°
2026-05-04 22:42 42.01702 -83.46383 9592 ft 265 kts 221°
2026-05-04 22:42 42.00209 -83.47855 10138 ft 270 kts 221°
2026-05-04 22:42 41.98646 -83.49390 10405 ft 286 kts 221°
2026-05-04 22:42 41.97017 -83.51054 10624 ft 303 kts 222°
2026-05-04 22:43 41.95305 -83.52837 10824 ft 320 kts 222°
2026-05-04 22:43 41.93501 -83.54707 11037 ft 336 kts 222°
2026-05-04 22:43 41.91604 -83.56669 11226 ft 351 kts 221°
2026-05-04 22:43 41.89628 -83.58701 11422 ft 365 kts 221°
2026-05-04 22:44 41.87584 -83.60809 11715 ft 374 kts 221°
2026-05-04 22:44 41.85512 -83.62944 12130 ft 377 kts 221°
2026-05-04 22:44 41.83449 -83.65061 12572 ft 380 kts 221°
2026-05-04 22:44 41.81346 -83.67229 13068 ft 383 kts 221°
2026-05-04 22:45 41.79227 -83.69417 13522 ft 386 kts 221°
2026-05-04 22:45 41.74922 -83.73841 14325 ft 393 kts 221°
2026-05-04 22:45 41.72741 -83.76076 14779 ft 396 kts 221°
2026-05-04 22:46 41.70544 -83.78315 15286 ft 400 kts 220°
2026-05-04 22:46 41.68200 -83.80369 15819 ft 405 kts 216°
2026-05-04 22:46 41.65767 -83.82321 16279 ft 409 kts 215°
2026-05-04 22:46 41.63315 -83.84283 16715 ft 412 kts 215°
2026-05-04 22:47 41.60850 -83.86262 17146 ft 415 kts 215°
2026-05-04 22:47 41.58366 -83.88256 17561 ft 419 kts 215°
2026-05-04 22:47 41.55857 -83.90267 17960 ft 422 kts 215°
2026-05-04 22:47 41.53328 -83.92291 18325 ft 425 kts 215°
2026-05-04 22:48 41.50789 -83.94321 18699 ft 426 kts 214°
2026-05-04 22:48 41.48232 -83.96352 19065 ft 429 kts 214°
2026-05-04 22:48 41.45666 -83.98389 19452 ft 431 kts 214°
2026-05-04 22:48 41.43083 -84.00443 19838 ft 433 kts 214°
2026-05-04 22:49 41.40496 -84.02518 20172 ft 435 kts 215°
2026-05-04 22:49 41.37891 -84.04609 20474 ft 439 kts 214°
2026-05-04 22:49 41.35271 -84.06698 20844 ft 442 kts 214°
2026-05-04 22:49 41.32652 -84.08783 21274 ft 445 kts 214°
2026-05-04 22:50 41.29989 -84.10903 21717 ft 447 kts 215°
2026-05-04 22:50 41.27460 -84.13303 22090 ft 446 kts 223°
2026-05-04 22:50 41.25303 -84.16239 22409 ft 444 kts 233°
2026-05-04 22:50 41.23606 -84.19652 22724 ft 443 kts 244°
2026-05-04 22:51 41.22354 -84.23394 23051 ft 444 kts 250°
2026-05-04 22:51 41.21231 -84.27218 23357 ft 446 kts 250°
2026-05-04 22:51 41.20110 -84.31058 23647 ft 448 kts 250°
2026-05-04 22:51 41.18965 -84.34923 23941 ft 450 kts 250°
2026-05-04 22:52 41.17809 -84.38789 24202 ft 451 kts 250°
2026-05-04 22:52 41.16653 -84.42647 24539 ft 450 kts 250°
2026-05-04 22:52 41.15501 -84.46489 24894 ft 449 kts 250°
2026-05-04 22:52 41.14348 -84.50340 25235 ft 448 kts 250°
2026-05-04 22:53 41.13191 -84.54181 25603 ft 447 kts 250°
2026-05-04 22:53 41.12034 -84.57997 25950 ft 446 kts 250°
2026-05-04 22:53 41.10881 -84.61806 26304 ft 445 kts 250°
2026-05-04 22:53 41.09930 -84.65705 26648 ft 443 kts 257°
2026-05-04 22:54 41.09244 -84.69673 27014 ft 441 kts 258°
2026-05-04 22:54 41.08588 -84.73619 27381 ft 439 kts 258°
2026-05-04 22:54 41.07927 -84.77574 27743 ft 438 kts 258°
2026-05-04 22:54 41.07262 -84.81501 28089 ft 436 kts 258°
2026-05-04 22:55 41.06603 -84.85424 28428 ft 435 kts 258°
2026-05-04 22:55 41.05941 -84.89324 28766 ft 434 kts 258°
2026-05-04 22:55 41.05280 -84.93224 29081 ft 433 kts 258°
2026-05-04 22:55 41.04616 -84.97120 29389 ft 432 kts 258°
2026-05-04 22:56 41.03956 -85.01000 29689 ft 432 kts 258°
2026-05-04 22:56 41.03290 -85.04875 29949 ft 431 kts 258°
2026-05-04 22:56 41.02626 -85.08738 30174 ft 431 kts 258°
2026-05-04 22:56 41.01960 -85.12597 30402 ft 430 kts 258°
2026-05-04 22:57 41.01289 -85.16446 30632 ft 429 kts 258°
2026-05-04 22:57 41.00625 -85.20295 30869 ft 428 kts 258°
2026-05-04 22:57 40.99961 -85.24127 31101 ft 427 kts 258°
2026-05-04 22:57 40.99299 -85.27965 31329 ft 427 kts 258°
2026-05-04 22:58 40.98638 -85.31781 31581 ft 426 kts 258°
2026-05-04 22:58 40.97974 -85.35591 31796 ft 425 kts 258°
2026-05-04 22:58 40.97309 -85.39397 32004 ft 424 kts 258°
2026-05-04 22:58 40.96641 -85.43196 32197 ft 423 kts 258°
2026-05-04 22:59 40.95978 -85.46993 32341 ft 423 kts 257°
2026-05-04 22:59 40.95314 -85.50777 32501 ft 423 kts 257°
2026-05-04 22:59 40.94647 -85.54570 32680 ft 423 kts 257°
2026-05-04 22:59 40.93978 -85.58364 32858 ft 422 kts 257°
2026-05-04 23:00 40.93309 -85.62147 33027 ft 422 kts 257°
2026-05-04 23:00 40.92641 -85.65913 33201 ft 421 kts 257°
2026-05-04 23:00 40.91968 -85.69687 33373 ft 420 kts 257°
2026-05-04 23:00 40.91296 -85.73440 33528 ft 420 kts 257°
2026-05-04 23:01 40.90624 -85.77191 33676 ft 419 kts 257°
2026-05-04 23:01 40.89957 -85.80949 33742 ft 420 kts 257°
2026-05-04 23:01 40.88630 -85.88441 33702 ft 419 kts 258°
2026-05-04 23:02 40.87738 -85.96051 33686 ft 419 kts 262°
2026-05-04 23:02 40.86927 -86.03673 33681 ft 419 kts 262°
2026-05-04 23:03 40.86103 -86.11307 33679 ft 419 kts 262°
2026-05-04 23:03 40.85280 -86.18930 33679 ft 419 kts 262°
2026-05-04 23:04 40.84453 -86.26549 33699 ft 420 kts 262°
2026-05-04 23:04 40.83618 -86.34212 33698 ft 421 kts 262°
2026-05-04 23:05 40.82779 -86.41815 33695 ft 421 kts 262°
2026-05-04 23:05 40.81920 -86.49519 33693 ft 421 kts 262°
2026-05-04 23:06 40.81064 -86.57170 33689 ft 422 kts 262°
2026-05-04 23:06 40.80204 -86.64810 33687 ft 424 kts 262°
2026-05-04 23:07 40.79337 -86.72497 33692 ft 424 kts 262°
2026-05-04 23:07 40.78465 -86.80186 33677 ft 423 kts 262°
2026-05-04 23:08 40.77586 -86.87870 33682 ft 423 kts 262°
2026-05-04 23:08 40.76697 -86.95548 33674 ft 424 kts 261°
2026-05-04 23:09 40.75810 -87.03219 33672 ft 423 kts 261°
2026-05-04 23:09 40.74907 -87.10887 33664 ft 423 kts 261°
2026-05-04 23:10 40.74018 -87.18563 33664 ft 423 kts 261°
2026-05-04 23:10 40.73110 -87.26238 33659 ft 423 kts 261°
2026-05-04 23:11 40.72197 -87.33893 33655 ft 424 kts 261°
2026-05-04 23:11 40.71277 -87.41574 33650 ft 424 kts 261°
2026-05-04 23:12 40.70353 -87.49259 33658 ft 424 kts 261°
2026-05-04 23:12 40.69426 -87.56928 33652 ft 424 kts 261°
2026-05-04 23:13 40.68662 -87.63309 33651 ft 424 kts 261°
2026-05-04 23:13 40.67731 -87.70984 33653 ft 424 kts 261°
2026-05-04 23:14 40.66635 -87.79878 33647 ft 423 kts 260°
2026-05-04 23:14 40.65839 -87.86279 33641 ft 423 kts 260°
2026-05-04 23:15 40.64172 -87.93652 33642 ft 423 kts 244°
2026-05-04 23:15 40.62603 -87.96931 33647 ft 425 kts 233°
2026-05-04 23:15 40.60674 -87.99892 33652 ft 426 kts 230°
2026-05-04 23:16 40.56679 -88.05662 33642 ft 426 kts 230°
2026-05-04 23:16 40.52725 -88.11468 33651 ft 426 kts 230°
2026-05-04 23:17 40.48796 -88.17273 33655 ft 425 kts 230°
2026-05-04 23:17 40.44864 -88.23084 33645 ft 425 kts 230°
2026-05-04 23:18 40.40947 -88.28841 33655 ft 426 kts 230°
2026-05-04 23:18 40.36999 -88.34629 33658 ft 426 kts 230°
2026-05-04 23:19 40.33038 -88.40407 33657 ft 426 kts 230°
2026-05-04 23:19 40.29082 -88.46184 33657 ft 426 kts 230°
2026-05-04 23:20 40.25116 -88.51971 33663 ft 428 kts 230°
2026-05-04 23:20 40.21124 -88.57773 33660 ft 429 kts 230°
2026-05-04 23:21 40.17138 -88.63591 33666 ft 429 kts 230°
2026-05-04 23:21 40.13144 -88.69393 33667 ft 429 kts 230°
2026-05-04 23:22 40.09130 -88.75182 33678 ft 429 kts 230°
2026-05-04 23:22 40.05125 -88.80959 33669 ft 429 kts 230°
2026-05-04 23:23 40.01118 -88.86744 33640 ft 430 kts 230°
2026-05-04 23:23 39.97079 -88.92558 33665 ft 433 kts 230°
2026-05-04 23:24 39.93026 -88.98378 33670 ft 434 kts 230°
2026-05-04 23:24 39.88986 -89.04208 33670 ft 434 kts 230°
2026-05-04 23:25 39.84920 -89.10004 33668 ft 433 kts 230°
2026-05-04 23:25 39.80863 -89.15808 33678 ft 433 kts 230°
2026-05-04 23:26 39.76796 -89.21609 33670 ft 434 kts 230°
2026-05-04 23:26 39.72725 -89.27400 33680 ft 433 kts 231°
2026-05-04 23:27 39.68662 -89.33161 33679 ft 432 kts 231°
2026-05-04 23:27 39.64595 -89.38913 33695 ft 433 kts 231°
2026-05-04 23:28 39.60528 -89.44683 33682 ft 433 kts 231°
2026-05-04 23:28 39.56455 -89.50434 33675 ft 434 kts 231°
2026-05-04 23:29 39.52371 -89.56211 33685 ft 435 kts 231°
2026-05-04 23:29 39.48285 -89.61978 33680 ft 435 kts 231°
2026-05-04 23:30 39.44181 -89.67736 33681 ft 435 kts 231°
2026-05-04 23:30 39.40068 -89.73471 33678 ft 435 kts 231°
2026-05-04 23:31 39.35958 -89.79203 33670 ft 435 kts 231°
2026-05-04 23:31 39.31847 -89.84966 33661 ft 437 kts 232°
2026-05-04 23:32 39.27728 -89.90732 33666 ft 437 kts 231°
2026-05-04 23:32 39.23589 -89.96484 33672 ft 437 kts 231°
2026-05-04 23:33 39.19448 -90.02227 33668 ft 437 kts 231°
2026-05-04 23:33 39.15300 -90.07957 33673 ft 437 kts 231°
2026-05-04 23:34 39.11165 -90.13688 33665 ft 437 kts 232°
2026-05-04 23:34 39.07027 -90.19418 33674 ft 437 kts 232°
2026-05-04 23:35 39.02881 -90.25134 33654 ft 437 kts 232°
2026-05-04 23:35 38.98731 -90.30840 33651 ft 437 kts 232°
2026-05-04 23:36 38.94588 -90.36556 33649 ft 437 kts 232°
2026-05-04 23:36 38.90434 -90.42232 33644 ft 434 kts 232°
2026-05-04 23:37 38.86302 -90.47884 33645 ft 432 kts 233°
2026-05-04 23:37 38.82348 -90.53670 33649 ft 431 kts 234°
2026-05-04 23:38 38.78408 -90.59466 33669 ft 431 kts 234°
2026-05-04 23:38 38.74459 -90.65248 33665 ft 431 kts 234°
2026-05-04 23:39 38.70510 -90.71022 33660 ft 431 kts 234°
2026-05-04 23:39 38.66566 -90.76798 33669 ft 431 kts 234°
2026-05-04 23:40 38.62631 -90.82533 33662 ft 427 kts 235°
2026-05-04 23:40 38.58723 -90.88238 33663 ft 426 kts 235°
2026-05-04 23:41 38.54813 -90.93942 33670 ft 427 kts 235°
2026-05-04 23:41 38.50894 -90.99635 33672 ft 427 kts 235°
2026-05-04 23:42 38.46970 -91.05316 33669 ft 427 kts 235°
2026-05-04 23:42 38.43043 -91.10998 33670 ft 427 kts 235°
2026-05-04 23:43 38.39114 -91.16669 33703 ft 427 kts 236°
2026-05-04 23:43 38.35175 -91.22340 33722 ft 427 kts 236°
2026-05-04 23:44 38.31251 -91.28015 33725 ft 427 kts 236°
2026-05-04 23:44 38.27315 -91.33670 33725 ft 427 kts 236°
2026-05-04 23:45 38.23369 -91.39311 33717 ft 427 kts 236°
2026-05-04 23:45 38.19420 -91.44948 33709 ft 427 kts 236°
2026-05-04 23:46 38.15463 -91.50596 33708 ft 429 kts 236°
2026-05-04 23:46 38.11496 -91.56267 33714 ft 428 kts 237°
2026-05-04 23:47 38.07549 -91.61904 33727 ft 428 kts 237°
2026-05-04 23:47 38.03607 -91.67511 33725 ft 428 kts 237°
2026-05-04 23:48 37.99637 -91.73134 33724 ft 428 kts 237°
2026-05-04 23:48 37.95666 -91.78756 33706 ft 428 kts 237°
2026-05-04 23:49 37.91692 -91.84365 33681 ft 427 kts 238°
2026-05-04 23:49 37.87728 -91.89956 33705 ft 427 kts 238°
2026-05-04 23:50 37.83769 -91.95519 33709 ft 423 kts 238°
2026-05-04 23:50 37.79834 -92.01051 33717 ft 422 kts 239°
2026-05-04 23:51 37.75910 -92.06583 33722 ft 422 kts 239°
2026-05-04 23:51 37.71977 -92.12093 33716 ft 423 kts 238°
2026-05-04 23:52 37.68037 -92.17607 33698 ft 423 kts 239°
2026-05-04 23:52 37.64103 -92.23119 33710 ft 423 kts 239°
2026-05-04 23:53 37.60152 -92.28605 33708 ft 423 kts 239°
2026-05-04 23:53 37.56222 -92.34072 33701 ft 419 kts 239°
2026-05-04 23:54 37.52318 -92.39518 33714 ft 418 kts 239°
2026-05-04 23:54 37.48409 -92.44952 33721 ft 419 kts 239°
2026-05-04 23:55 37.44488 -92.50374 33692 ft 419 kts 239°
2026-05-04 23:56 37.39255 -92.57583 33727 ft 419 kts 238°
2026-05-04 23:56 37.35338 -92.63002 33717 ft 419 kts 239°
2026-05-04 23:57 37.31420 -92.68415 33699 ft 418 kts 238°
2026-05-04 23:57 37.27500 -92.73793 33720 ft 417 kts 238°
2026-05-04 23:58 37.23578 -92.79151 33717 ft 417 kts 238°
2026-05-04 23:58 37.19669 -92.84519 33696 ft 417 kts 238°
2026-05-04 23:59 37.15757 -92.89881 33718 ft 417 kts 238°
2026-05-04 23:59 37.11832 -92.95226 33722 ft 416 kts 238°
2026-05-05 00:00 37.07919 -93.00580 33731 ft 417 kts 238°
2026-05-05 00:00 37.04002 -93.05931 33706 ft 417 kts 239°
2026-05-05 00:01 37.00067 -93.11239 33729 ft 415 kts 239°
2026-05-05 00:01 36.96160 -93.16547 33736 ft 414 kts 239°
2026-05-05 00:02 36.92285 -93.21807 33728 ft 414 kts 240°
2026-05-05 00:02 36.88359 -93.27127 33745 ft 413 kts 240°
2026-05-05 00:03 36.84451 -93.32397 33755 ft 413 kts 240°
2026-05-05 00:03 36.80577 -93.37623 33756 ft 411 kts 240°
2026-05-05 00:04 36.76692 -93.42825 33759 ft 406 kts 240°
2026-05-05 00:04 36.72886 -93.47963 33762 ft 406 kts 240°
2026-05-05 00:05 36.69046 -93.53119 33705 ft 406 kts 241°
2026-05-05 00:05 36.65229 -93.58230 33740 ft 400 kts 241°
2026-05-05 00:06 36.61436 -93.63306 33750 ft 400 kts 241°
2026-05-05 00:06 36.57638 -93.68377 33758 ft 400 kts 241°
2026-05-05 00:07 36.53845 -93.73425 33738 ft 400 kts 241°
2026-05-05 00:07 36.50046 -93.78481 33757 ft 399 kts 241°
2026-05-05 00:08 36.46269 -93.83519 33771 ft 396 kts 241°
2026-05-05 00:08 36.42515 -93.88508 33740 ft 395 kts 241°
2026-05-05 00:09 36.38767 -93.93474 33775 ft 393 kts 241°
2026-05-05 00:09 36.35013 -93.98426 33786 ft 394 kts 240°
2026-05-05 00:10 36.31268 -94.03377 33790 ft 394 kts 241°
2026-05-05 00:10 36.27476 -94.08297 33789 ft 401 kts 237°
2026-05-05 00:10 36.25229 -94.10474 33794 ft 420 kts 228°
2026-05-05 00:11 36.22567 -94.12175 33794 ft 444 kts 217°
2026-05-05 00:11 36.19509 -94.13230 33799 ft 468 kts 205°
2026-05-05 00:11 36.16248 -94.13811 33778 ft 475 kts 202°
2026-05-05 00:12 36.09688 -94.14823 33797 ft 474 kts 202°
2026-05-05 00:12 36.03157 -94.15942 33792 ft 473 kts 203°
2026-05-05 00:13 35.96674 -94.17090 33790 ft 473 kts 203°
2026-05-05 00:13 35.90157 -94.18227 33788 ft 473 kts 203°
2026-05-05 00:14 35.83632 -94.19374 33762 ft 474 kts 203°
2026-05-05 00:14 35.77115 -94.20511 33761 ft 473 kts 203°
2026-05-05 00:15 35.70606 -94.21647 33757 ft 473 kts 202°
2026-05-05 00:15 35.64083 -94.22786 33751 ft 475 kts 202°
2026-05-05 00:16 35.57529 -94.23923 33773 ft 475 kts 202°
2026-05-05 00:16 35.50986 -94.25060 33779 ft 476 kts 202°
2026-05-05 00:17 35.44427 -94.26188 33776 ft 476 kts 202°
2026-05-05 00:17 35.41220 -94.26942 33730 ft 461 kts 211°
2026-05-05 00:17 35.38297 -94.28316 33752 ft 439 kts 222°
2026-05-05 00:17 35.35791 -94.30283 33768 ft 419 kts 233°
2026-05-05 00:18 35.33614 -94.32606 33781 ft 412 kts 237°
2026-05-05 00:18 35.29389 -94.37347 33780 ft 413 kts 236°
2026-05-05 00:19 35.25105 -94.42039 33781 ft 414 kts 236°
2026-05-05 00:19 35.20804 -94.46712 33777 ft 414 kts 236°
2026-05-05 00:20 35.16488 -94.51381 33775 ft 414 kts 236°
2026-05-05 00:20 35.12151 -94.56070 33781 ft 418 kts 236°
2026-05-05 00:21 35.07777 -94.60787 33780 ft 421 kts 236°
2026-05-05 00:21 35.03376 -94.65512 33792 ft 421 kts 236°
2026-05-05 00:22 34.98984 -94.70248 33769 ft 421 kts 236°
2026-05-05 00:22 34.94591 -94.74970 33765 ft 421 kts 236°
2026-05-05 00:23 34.90187 -94.79683 33773 ft 422 kts 236°
2026-05-05 00:23 34.85765 -94.84408 33759 ft 424 kts 236°
2026-05-05 00:24 34.81333 -94.89105 33761 ft 427 kts 234°
2026-05-05 00:24 34.76797 -94.93743 33762 ft 424 kts 234°
2026-05-05 00:25 34.72271 -94.98351 33773 ft 424 kts 234°
2026-05-05 00:25 34.67748 -95.02961 33774 ft 425 kts 234°
2026-05-05 00:26 34.63219 -95.07574 33772 ft 424 kts 234°
2026-05-05 00:26 34.58709 -95.12185 33767 ft 424 kts 234°
2026-05-05 00:27 34.54162 -95.16805 33774 ft 424 kts 234°
2026-05-05 00:27 34.49639 -95.21397 33780 ft 424 kts 234°
2026-05-05 00:28 34.45109 -95.25983 33781 ft 425 kts 234°
2026-05-05 00:28 34.40564 -95.30562 33788 ft 424 kts 234°
2026-05-05 00:29 34.36056 -95.35086 33788 ft 423 kts 234°
2026-05-05 00:29 34.31517 -95.39644 33772 ft 421 kts 234°
2026-05-05 00:30 34.27004 -95.44174 33791 ft 422 kts 234°
2026-05-05 00:30 34.22488 -95.48695 33789 ft 421 kts 234°
2026-05-05 00:31 34.18005 -95.53179 33791 ft 421 kts 234°